Погода в Алтайском

Казахстан     50°12′33″N   82°23′55″E
темп.,
°C
ветер,
м/с
пор.,
м/с
влажн.,
%
обл.,
%
осадки,
мм/ч
давл.,
гПа
погр.,
м
25 февраля, чт
чт2500:00−5зсз5892100 6.3 1017355
03:00−9зсз2496100 0.5 1017242
06:00−12з4795100 2.9 1020517
09:00−14з5990100 0.5 1025679
12:00−16юз71177100 0.5 10281102
15:00−15юз9157595 0.0 10291828
18:00−17ю5129097 0.1 1031904
21:00−17ююз61292100 0.1 1033976
26 февраля, пт
пт2600:00−20юз61191100 0.5 10351084
03:00−23ююз4986100 0.0 1037306
06:00−25ю3790100 0.0 1040164
09:00−25ююв348882 0.0 104294
12:00−20ю697786 0.0 1041828
15:00−18ююз5978100 0.0 1040930
18:00−19ююв2394100 0.1 104070
21:00−20ююв2399100 0.2 104130
27 февраля, сб
сб2700:00−21ююв1296100 0.3 104122
03:00−20ююв2299100 0.1 104031
06:00−21ююв1296100 0.2 104021
09:00−20ююз1299100 0.2 104077
12:00−17ююз2392100 0.4 1039229
15:00−14ю2690100 0.1 1038375
18:00−15ююв3495100 0.1 103876
21:00−16ююв2384100 0.0 104057
28 февраля, вс
вс2800:00−16ююв2385100 0.0 104031
03:00−16ююв2287100 0.0 103929
06:00−16юв2396100 0.2 104067
09:00−14юв3992100 0.3 1039357
12:00−10ююв6118086 0.3 1038525
15:00−9юв712770 0.0 1036517
18:00−10юв7157548 0.0 1035425
21:00−10юв61774100 0.0 1034488
1 марта, пн
пн100:00−10ююв51676100 0.0 1032468
03:00−9ююв41474100 0.0 1031401
06:00−9ююв41075100 0.0 1030265
09:00−8ююв31077100 0.0 1029313
12:00−6ююв5971100 0.0 1028427
15:00−4ююв51073100 0.0 1027446
18:00−6ююв4875100 0.0 1027194
21:00−7ююв3777100 0.0 1027177